GLOBALSTAR M089 [+]

Last updated on July 6, 2021, 3:36 p.m. UTC

1 37744U 11033F   21186.58232457 -.00000087  00000-0  94255-4 0  9992
2 37744  51.9918 253.7720 0000732 128.7701  20.0821 12.62266027462519
UTC
Height (km)
Latitude
Longitude
Inclination
Orbital Period
UTC large
Height (km)
Speed (km/s)
/
Latitude / Longitude
Inclination (degrees)
Orbital Period (minutes)
Azimuth
Elevation
Range (km)
Doppler Factor
iOS Compass Heading
iOS Angle